Lid_Strength_Index
1 1 1 0 1 1 1 1 1 0 0 -0 -0 -0 -0 0 -0 0 -0 0 0 0 -0 0 0 -0 0 0 0 0 1 1 3 2 0 -0 -0 -0 -1 -2 -1 -1 -1
2 1 1 1 1 1 0 1 0 0 0 1 -0 0 1 -0 -0 0 0 0 0 1 0 0 0 0 0 0 0 1 1 1 2 3 1 1 0 -1 -1 -1 -1 -1 -1
1 2 2 2 1 1 1 0 -0 -0 -0 0 0 0 0 0 0 -0 0 0 0 0 0 0 0 0 1 1 0 1 1 1 1 2 2 0 0 -0 0 -0 -0 -1 -1
1 1 1 1 1 1 1 1 1 -0 0 1 1 1 1 1 -0 0 0 0 0 0 0 0 0 0 1 0 1 1 1 1 1 2 2 2 1 0 0 1 1 0 0
1 1 1 1 0 0 0 1 1 0 0 -0 0 1 1 1 1 0 0 0 0 1 0 0 -0 0 2 1 0 1 1 1 2 2 2 2 2 2 2 1 1 1 1
2 2 1 1 1 1 0 0 0 0 0 0 0 0 1 1 3 4 2 0 0 1 1 0 -0 1 1 3 3 3 1 1 2 2 2 2 2 1 1 1 1 2 3
4 3 3 2 1 1 1 1 1 1 0 1 0 0 1 0 5 5 4 1 0 0 0 1 1 0 1 -0 2 4 4 4 3 0 2 2 2 1 1 1 1 2 2
5 5 4 3 3 3 3 3 2 1 1 1 1 1 0 0 6 6 5 2 1 1 0 0 0 0 0 0 0 0 0 -0 0 2 1 0 -0 -0 0 0 1 1 1
7 6 5 5 5 4 4 4 4 3 2 2 1 1 1 1 7 6 5 1 1 1 1 1 0 0 3 6 1 1 1 1 2 5 5 5 5 5 3 1 2 2 3
8 8 7 6 6 6 5 5 5 4 3 1 1 1 3 1 5 7 4 1 1 1 0 0 4 4 8 9 3 1 2 1 1 0 -0 1 4 1 5 2 1 2 3
6 7 7 7 7 7 6 6 6 6 6 6 5 5 5 5 6 9 8 2 3 2 2 2 1 6 7 7 8 4 3 4 3 2 1 1 1 0 0 0 0 1 2
7 7 7 7 6 6 5 6 6 6 8 7 6 7 7 6 8 9 9 8 5 3 3 2 2 8 8 8 6 7 7 6 3 3 2 2 1 1 0 -0 -1 -1 -1
8 8 8 7 7 6 5 5 6 6 7 7 7 7 6 5 6 8 8 9 7 6 4 6 8 9 9 6 5 6 7 3 3 3 3 2 1 0 -0 -0 -1 -1 -1
10 10 9 9 9 8 7 7 7 7 7 6 6 6 6 6 6 7 7 5 5 6 7 6 6 6 7 6 4 2 1 1 1 1 1 1 0 0 1 0 1 1 1
11 11 10 10 10 9 8 8 7 7 8 7 8 8 8 8 9 10 10 8 8 8 7 2 2 3 3 2 2 0 0 0 1 1 2 1 1 1 1 1 1 1 2
11 11 11 11 10 10 10 10 9 9 9 10 10 9 8 9 10 11 12 12 11 10 4 3 3 2 2 2 1 1 1 1 1 1 1 2 3 2 2 1 1 2 2
11 11 11 11 11 11 11 11 11 10 10 11 11 11 11 11 11 12 12 12 10 7 5 4 4 3 2 1 1 1 2 3 2 2 2 2 2 3 3 2 1 2 2
9 10 11 11 11 11 11 11 11 11 12 11 11 11 11 12 12 12 12 10 8 7 6 5 5 4 2 3 3 4 4 3 3 3 3 3 2 2 2 2 2 2 2
9 10 10 10 10 11 11 11 11 11 12 12 11 11 11 12 12 12 11 10 10 10 9 8 6 4 4 4 5 5 5 5 5 5 5 4 4 4 3 3 2 4 4
8 8 9 10 10 10 10 11 11 11 11 11 12 12 11 12 12 11 11 10 10 10 10 9 8 8 7 5 5 5 5 6 6 6 5 5 5 5 5 5 3 3 3
9 8 8 10 10 10 10 11 11 11 11 11 11 11 10 11 12 11 11 11 11 11 10 9 9 7 6 7 6 5 6 6 6 6 6 6 6 6 5 5 5 5 4
9 9 9 10 10 10 10 10 11 11 11 11 11 11 11 11 11 11 11 11 11 11 10 9 8 8 8 8 8 6 7 7 7 7 7 7 7 7 8 7 6 5 5
9 9 9 9 9 9 10 10 10 11 11 11 10 10 11 11 11 11 11 11 11 10 10 9 9 8 8 7 6 6 7 8 7 7 8 8 8 8 8 8 8 7 7
9 9 9 9 9 9 9 10 11 11 11 11 11 10 10 11 11 11 11 11 11 11 10 10 10 9 8 8 8 8 7 7 7 8 8 8 9 9 9 9 9 9 8
9 9 9 9 10 10 10 11 11 11 11 11 10 10 10 10 11 11 11 11 10 10 10 9 9 9 9 9 9 9 9 11 10 10 9 9 9 10 10 11 10 10 9
9 9 9 9 10 10 10 10 11 11 10 9 9 9 9 9 9 10 10 10 10 10 10 9 9 9 9 9 9 10 12 13 11 13 11 11 11 11 10 10 9 9 9